Pula, Croatia

3:54 PM CET on February 19, 2017 (GMT +0100)
Pula

Weather History for LDPL - October, 2012

Change the Weather History Date:

Saturday, October 6, 2012

  Actual Average Record
Temperature  
Mean Temperature 64 °F -  
Max Temperature 74 °F - - ()
Min Temperature 55 °F - - ()
Growing Degree Days 14 (Base 50)    
Moisture  
Dew Point 59 °F    
Average Humidity 85    
Maximum Humidity 100    
Minimum Humidity 60    
Precipitation  
Precipitation 0.00 in - - ()
Sea Level Pressure  
Sea Level Pressure 30.12 in    
Wind  
Wind Speed 3 mph ()    
Max Wind Speed 7 mph    
Max Gust Speed -    
Visibility 6.2 miles    
Events      
T = Trace of Precipitation, MM = Missing Value Source: Averaged Metar Reports

Daily Weather History Graph

Daily Weather History Graph

Search for Another Location

Airport or City:

Trip Planner

Search our weather history database for the weather conditions in past years. The results will help you decide how hot, cold, wet, or windy it might be!

Date:

Astronomy

Oct. 06, 2012 Rise Set
Actual Time 7:08 AM CEST 6:35 PM CEST
Civil Twilight 6:39 AM CEST 7:04 PM CEST
Nautical Twilight 6:05 AM CEST 7:38 PM CEST
Astronomical Twilight 5:31 AM CEST 8:12 PM CEST
Moon 10:23 PM CEST (10/6) 1:02 PM CEST (10/6)
Length of Visible Light 12h 24m
Length of Day
11h 26m
Waning Gibbous, 68% of the Moon is Illuminated
Oct 6
Waning Gibbous
Oct 8
Last Quarter
Oct 15
New
Oct 22
First Quarter
Oct 29
Full

Hourly Weather History & Observations

Time (CEST) Temp. Dew Point Humidity Pressure Visibility Wind Dir Wind Speed Gust Speed Precip Events Conditions
12:00 AM 57.2 °F 55.4 °F 94% 30.15 in - Variable 2.3 mph - N/A   Clear
12:30 AM 57.2 °F 55.4 °F 94% 30.15 in - Variable 2.3 mph - N/A   Clear
1:00 AM 57.2 °F 55.4 °F 94% 30.15 in - Variable 2.3 mph - N/A   Clear
1:30 AM 57.2 °F 55.4 °F 94% 30.15 in - Variable 2.3 mph - N/A   Clear
2:00 AM 57 °F 54 °F 88% 30.16 in 12 mi NE 2.2 mph - -  
2:00 AM 57.2 °F 55.4 °F 94% 30.15 in - Variable 2.3 mph - N/A   Clear
2:30 AM 57.2 °F 55.4 °F 94% 30.15 in - Variable 2.3 mph - N/A   Clear
3:00 AM 57.2 °F 55.4 °F 94% 30.15 in - Variable 2.3 mph - N/A   Clear
3:30 AM 57.2 °F 55.4 °F 94% 30.12 in - Variable 2.3 mph - N/A   Clear
4:00 AM 57.2 °F 55.4 °F 94% 30.12 in - ENE 4.6 mph - N/A   Clear
4:30 AM 59.0 °F 57.2 °F 94% 30.12 in - Variable 2.3 mph - N/A   Clear
5:00 AM 59 °F 57 °F 92% 30.14 in 12 mi ENE 2.2 mph - -  
5:00 AM 59.0 °F 57.2 °F 94% 30.12 in - Variable 2.3 mph - N/A   Clear
5:30 AM 59.0 °F 57.2 °F 94% 30.12 in - Variable 2.3 mph - N/A   Clear
6:00 AM 57 °F 55 °F 92% 30.14 in 4 mi ENE 2.2 mph - -   Mist
6:00 AM 57.2 °F 55.4 °F 94% 30.12 in 3.7 mi Variable 3.5 mph - N/A   Unknown
6:30 AM 57.2 °F 57.2 °F 100% 30.12 in 3.7 mi NE 4.6 mph - N/A   Unknown
7:00 AM 59 °F 58 °F 96% 30.14 in 4 mi ENE 4.5 mph - -   Mist
7:00 AM 59.0 °F 59.0 °F 100% 30.12 in 3.7 mi ENE 4.6 mph - N/A   Unknown
7:30 AM 59.0 °F 57.2 °F 94% 30.12 in 3.7 mi Variable 3.5 mph - N/A   Unknown
8:00 AM 59 °F 58 °F 96% 30.15 in 4 mi ENE 4.5 mph - -   Mist
8:00 AM 59.0 °F 59.0 °F 100% 30.12 in 4.3 mi ENE 4.6 mph - N/A   Unknown
8:30 AM 60.8 °F 60.8 °F 100% 30.12 in 5.0 mi Variable 3.5 mph - N/A   Unknown
9:00 AM 64.4 °F 62.6 °F 94% 30.12 in 5.0 mi East 4.6 mph - N/A   Unknown
9:30 AM 66.2 °F 62.6 °F 88% 30.15 in - ENE 4.6 mph - N/A   Clear
10:00 AM 68.0 °F 60.8 °F 78% 30.15 in - East 4.6 mph - N/A   Clear
10:30 AM 69.8 °F 62.6 °F 78% 30.15 in - ENE 4.6 mph - N/A   Clear
11:00 AM 72 °F 62 °F 62% 30.15 in 6 mi ESE 2.2 mph - -   Clear
11:00 AM 71.6 °F 62.6 °F 73% 30.15 in - Variable 2.3 mph - N/A   Clear
11:30 AM 73.4 °F 62.6 °F 69% 30.15 in 6.2 mi Variable 2.3 mph - N/A   Partly Cloudy
12:00 PM 71.6 °F 60.8 °F 69% 30.15 in 6.2 mi Variable 3.5 mph - N/A   Partly Cloudy
12:30 PM 73.4 °F 60.8 °F 65% 30.15 in 6.2 mi Variable 4.6 mph - N/A   Scattered Clouds
1:00 PM 71.6 °F 60.8 °F 69% 30.12 in 6.2 mi SSW 6.9 mph - N/A   Scattered Clouds
1:30 PM 71.6 °F 62.6 °F 73% 30.12 in 6.2 mi Variable 4.6 mph - N/A   Scattered Clouds
2:00 PM 74 °F 63 °F 60% 30.13 in 9 mi South 4.5 mph - -   Partly Cloudy
2:00 PM 73.4 °F 62.6 °F 69% 30.12 in 6.2 mi Variable 5.8 mph - N/A   Scattered Clouds
2:30 PM 73.4 °F 62.6 °F 69% 30.12 in 6.2 mi Variable 4.6 mph - N/A   Scattered Clouds
3:00 PM 75.2 °F 60.8 °F 61% 30.09 in 6.2 mi Variable 4.6 mph - N/A   Scattered Clouds
3:30 PM 73.4 °F 60.8 °F 65% 30.09 in 6.2 mi Variable 4.6 mph - N/A   Partly Cloudy
4:00 PM 73.4 °F 59.0 °F 61% 30.09 in 6.2 mi SSW 5.8 mph - N/A   Partly Cloudy
4:30 PM 73.4 °F 62.6 °F 69% 30.09 in 6.2 mi Variable 4.6 mph - N/A   Partly Cloudy
5:00 PM 72 °F 62 °F 62% 30.08 in 12 mi ESE 4.5 mph - -   Scattered Clouds
5:00 PM 71.6 °F 60.8 °F 69% 30.06 in 6.2 mi Variable 3.5 mph - N/A   Partly Cloudy
5:30 PM 71.6 °F 62.6 °F 73% 30.06 in 6.2 mi Variable 3.5 mph - N/A   Partly Cloudy
6:00 PM 69.8 °F 60.8 °F 73% 30.06 in 6.2 mi Variable 2.3 mph - N/A   Partly Cloudy
6:30 PM 66.2 °F 60.8 °F 83% 30.06 in - Variable 1.2 mph - N/A   Clear
7:00 PM 62.6 °F 59.0 °F 88% 30.09 in - Variable 2.3 mph - N/A   Clear
7:30 PM 62.6 °F 60.8 °F 94% 30.09 in - Variable 2.3 mph - N/A   Clear
8:00 PM 61 °F 59 °F 89% 30.10 in 6 mi East 2.2 mph - -   Scattered Clouds
8:00 PM 60.8 °F 59.0 °F 94% 30.09 in - Variable 2.3 mph - N/A   Clear
8:30 PM 59.0 °F 57.2 °F 94% 30.09 in 6.2 mi Variable 2.3 mph - N/A   Partly Cloudy
9:00 PM 60.8 °F 59.0 °F 94% 30.09 in - Variable 2.3 mph - N/A   Clear
9:30 PM 59.0 °F 57.2 °F 94% 30.09 in - ENE 4.6 mph - N/A   Clear
10:00 PM 59.0 °F 57.2 °F 94% 30.09 in 6.2 mi ENE 4.6 mph - N/A   Partly Cloudy
10:30 PM 57.2 °F 55.4 °F 94% 30.09 in 6.2 mi Variable 2.3 mph - N/A   Partly Cloudy
11:00 PM 57 °F 56 °F 95% 30.11 in 6 mi NNE 2.2 mph - -   Scattered Clouds
11:00 PM 57.2 °F 55.4 °F 94% 30.09 in 6.2 mi Variable 2.3 mph - N/A   Partly Cloudy
11:30 PM 59.0 °F 57.2 °F 94% 30.09 in 6.2 mi Variable 2.3 mph - N/A   Partly Cloudy